Meridian NAS, MS

9:06 AM CST on January 18, 2018 (GMT -0600)
Meridian Naval Air Station

Weather History for KNMM - June, 2013

Change the Weather History Date:

Wednesday, June 26, 2013

  Actual Average Record
Temperature  
Mean Temperature 82 °F -  
Max Temperature 93 °F 86 °F 100 °F (2016)
Min Temperature 72 °F 67 °F 61 °F (2017)
Cooling Degree Days 16    
Growing Degree Days 32 (Base 50)    
Moisture  
Dew Point 70 °F    
Average Humidity 70    
Maximum Humidity 93    
Minimum Humidity 45    
Precipitation  
Precipitation 0.00 in - - ()
Sea Level Pressure  
Sea Level Pressure 30.04 in    
Wind  
Wind Speed 3 mph (SW)    
Max Wind Speed 8 mph    
Max Gust Speed -    
Visibility 10 miles    
Events      
Averages and records for this station are not official NWS values.
T = Trace of Precipitation, MM = Missing Value Source: NWS Daily Summary

Daily Weather History Graph

Daily Weather History Graph

Search for Another Location

Airport or City:

Trip Planner

Search our weather history database for the weather conditions in past years. The results will help you decide how hot, cold, wet, or windy it might be!

Date:

Astronomy

Jun. 26, 2013 Rise Set
Actual Time 5:48 AM CDT 8:05 PM CDT
Civil Twilight 5:20 AM CDT 8:34 PM CDT
Nautical Twilight 4:45 AM CDT 9:09 PM CDT
Astronomical Twilight 4:07 AM CDT 9:46 PM CDT
Moon 10:43 PM CDT (6/26) 9:27 AM CDT (6/26)
Length of Visible Light 15h 13m
Length of Day
14h 16m
Waning Gibbous, 85% of the Moon is Illuminated
Jun 26
Waning Gibbous
Jun 29
Last Quarter
Jul 8
New
Jul 15
First Quarter
Jul 22
Full

Hourly Weather History & Observations

Time (CDT) Temp. Heat Index Dew Point Humidity Pressure Visibility Wind Dir Wind Speed Gust Speed Precip Events Conditions
12:56 AM 77.0 °F - 72.0 °F 84% 30.04 in 10.0 mi SSW 3.5 mph - N/A   Clear
1:56 AM 77.0 °F - 71.1 °F 82% 30.03 in 10.0 mi Calm Calm - N/A   Clear
2:56 AM 75.9 °F - 71.1 °F 85% 30.03 in 10.0 mi SSW 3.5 mph - N/A   Clear
3:56 AM 73.9 °F - 71.1 °F 91% 30.04 in 10.0 mi Calm Calm - N/A   Clear
4:56 AM 73.9 °F - 71.1 °F 91% 30.06 in 10.0 mi Calm Calm - N/A   Scattered Clouds
5:56 AM 72.0 °F - 70.0 °F 93% 30.08 in 10.0 mi Calm Calm - N/A   Clear
6:56 AM 73.9 °F - 71.1 °F 91% 30.09 in 10.0 mi Calm Calm - N/A   Clear
7:56 AM 79.0 °F - 72.0 °F 79% 30.09 in 10.0 mi SW 3.5 mph - N/A   Clear
8:56 AM 82.9 °F 87.5 °F 71.1 °F 67% 30.10 in 10.0 mi West 8.1 mph - N/A   Clear
9:56 AM 84.9 °F 90.1 °F 71.1 °F 63% 30.09 in 10.0 mi WSW 5.8 mph - N/A   Scattered Clouds
10:56 AM 86.0 °F 91.5 °F 71.1 °F 61% 30.09 in 10.0 mi WSW 6.9 mph - N/A   Scattered Clouds
11:56 AM 88.0 °F 92.1 °F 69.1 °F 53% 30.08 in 10.0 mi West 8.1 mph - N/A   Scattered Clouds
12:56 PM 89.1 °F 93.7 °F 69.1 °F 52% 30.08 in 10.0 mi SW 4.6 mph - N/A   Scattered Clouds
1:56 PM 91.0 °F 95.6 °F 69.1 °F 48% 30.05 in 10.0 mi SW 6.9 mph - N/A   Scattered Clouds
2:56 PM 91.9 °F 95.9 °F 68.0 °F 45% 30.02 in 10.0 mi SW 4.6 mph - N/A   Scattered Clouds
3:56 PM 91.9 °F 95.9 °F 68.0 °F 45% 30.00 in 10.0 mi Variable 6.9 mph - N/A   Scattered Clouds
4:56 PM 91.0 °F 95.2 °F 68.0 °F 47% 30.00 in 10.0 mi West 8.1 mph - N/A   Scattered Clouds
5:56 PM 90.0 °F 95.4 °F 70.0 °F 52% 29.99 in 10.0 mi SW 4.6 mph - N/A   Scattered Clouds
6:56 PM 87.1 °F 92.8 °F 71.1 °F 59% 29.98 in 10.0 mi SW 3.5 mph - N/A   Scattered Clouds
7:56 PM 82.0 °F 86.3 °F 71.1 °F 69% 29.97 in 10.0 mi SW 3.5 mph - N/A   Scattered Clouds
9:56 PM 75.9 °F - 70.0 °F 82% 29.99 in 10.0 mi SSW 3.5 mph - N/A   Scattered Clouds
10:56 PM 75.0 °F - 70.0 °F 84% 30.00 in 10.0 mi SSW 3.5 mph - N/A   Partly Cloudy
11:56 PM 73.0 °F - 70.0 °F 90% 30.01 in 10.0 mi Calm Calm - N/A   Partly Cloudy